DAL69 KSFO-KMSP

Flight info

Callsign DAL69
Flight time 3h 4m
Altitude 39000
Route NIITE4 ORRCA Q120 UFFDA TORGY4
Aircraft B78X/H-SDE1E2E3FGHIJ2J3J4J5M1RWXY/LB1D1

Departure

Time 2026-05-07 10:51
Airport San Francisco International Airport (KSFO)

Arrival

Time 2026-05-07 13:55
Airport Minneapolis–Saint Paul International Airport / Wold–Chamberlain Field (KMSP)
Time Latitude Longitude Altitude Speed Heading
2026-05-07 10:34 37.61864 -122.38185 26 ft 0 kts 184°
2026-05-07 10:40 37.61869 -122.38185 26 ft 2 kts 184°
2026-05-07 10:40 37.61886 -122.38183 26 ft 3 kts 187°
2026-05-07 10:41 37.61906 -122.38178 26 ft 3 kts 198°
2026-05-07 10:41 37.61924 -122.38168 26 ft 3 kts 208°
2026-05-07 10:41 37.61942 -122.38154 26 ft 3 kts 219°
2026-05-07 10:41 37.61946 -122.38150 26 ft 0 kts 221°
2026-05-07 10:43 37.61945 -122.38150 26 ft 0 kts 221°
2026-05-07 10:44 37.61945 -122.38151 26 ft 1 kts 221°
2026-05-07 10:44 37.61911 -122.38148 26 ft 9 kts 144°
2026-05-07 10:44 37.61887 -122.38053 26 ft 14 kts 108°
2026-05-07 10:45 37.61849 -122.37920 26 ft 19 kts 115°
2026-05-07 10:45 37.61797 -122.37778 26 ft 19 kts 114°
2026-05-07 10:45 37.61751 -122.37645 26 ft 17 kts 111°
2026-05-07 10:45 37.61712 -122.37498 26 ft 18 kts 113°
2026-05-07 10:46 37.61659 -122.37366 26 ft 16 kts 118°
2026-05-07 10:46 37.61601 -122.37233 26 ft 18 kts 118°
2026-05-07 10:46 37.61548 -122.37095 26 ft 17 kts 116°
2026-05-07 10:46 37.61495 -122.36956 26 ft 18 kts 116°
2026-05-07 10:47 37.61415 -122.36836 26 ft 16 kts 138°
2026-05-07 10:47 37.61345 -122.36719 26 ft 18 kts 120°
2026-05-07 10:47 37.61285 -122.36580 26 ft 16 kts 117°
2026-05-07 10:47 37.61231 -122.36449 26 ft 18 kts 117°
2026-05-07 10:48 37.61174 -122.36311 26 ft 16 kts 118°
2026-05-07 10:48 37.61117 -122.36177 26 ft 18 kts 118°
2026-05-07 10:48 37.61060 -122.36038 26 ft 17 kts 109°
2026-05-07 10:48 37.61094 -122.35908 26 ft 17 kts 35°
2026-05-07 10:49 37.61198 -122.35835 26 ft 18 kts 29°
2026-05-07 10:49 37.61302 -122.35765 26 ft 14 kts 26°
2026-05-07 10:49 37.61384 -122.35797 26 ft 13 kts 302°
2026-05-07 10:49 37.61392 -122.35818 26 ft 0 kts 298°
2026-05-07 10:50 37.61393 -122.35818 26 ft 0 kts 298°
2026-05-07 10:50 37.61413 -122.35861 26 ft 30 kts 300°
2026-05-07 10:50 37.61675 -122.36479 26 ft 125 kts 297°
2026-05-07 10:51 37.62174 -122.37676 312 ft 169 kts 297°
2026-05-07 10:51 37.62719 -122.38969 1482 ft 163 kts 298°
2026-05-07 10:51 37.63324 -122.40179 2352 ft 175 kts 304°
2026-05-07 10:51 37.64449 -122.41049 2734 ft 204 kts 333°
2026-05-07 10:52 37.65912 -122.41065 3178 ft 225 kts
2026-05-07 10:52 37.67340 -122.40083 3742 ft 242 kts 35°
2026-05-07 10:52 37.68488 -122.38522 4648 ft 245 kts 45°
2026-05-07 10:52 37.69707 -122.36963 5319 ft 260 kts 43°
2026-05-07 10:53 37.71000 -122.35476 5843 ft 271 kts 40°
2026-05-07 10:53 37.72316 -122.34087 6299 ft 276 kts 37°
2026-05-07 10:53 37.73998 -122.33094 6688 ft 262 kts 14°
2026-05-07 10:53 37.75813 -122.33211 7255 ft 264 kts 348°
2026-05-07 10:54 37.77458 -122.34250 7929 ft 267 kts 330°
2026-05-07 10:54 37.79104 -122.35436 8508 ft 274 kts 330°
2026-05-07 10:54 37.80792 -122.36518 9064 ft 276 kts 333°
2026-05-07 10:54 37.82563 -122.37535 9590 ft 280 kts 335°
2026-05-07 10:55 37.84398 -122.38431 10105 ft 290 kts 342°
2026-05-07 10:55 37.86466 -122.38688 10439 ft 305 kts 357°
2026-05-07 10:55 37.88619 -122.38635 10950 ft 315 kts
2026-05-07 10:55 37.90834 -122.38536 11444 ft 323 kts
2026-05-07 10:56 37.93094 -122.38269 11928 ft 332 kts
2026-05-07 10:56 37.95250 -122.37062 12316 ft 342 kts 32°
2026-05-07 10:56 37.96895 -122.34912 12992 ft 340 kts 51°
2026-05-07 10:56 37.98165 -122.32458 13764 ft 337 kts 56°
2026-05-07 10:57 37.99469 -122.29926 14257 ft 342 kts 56°
2026-05-07 10:57 38.00828 -122.27438 14740 ft 346 kts 54°
2026-05-07 10:57 38.02250 -122.24960 15227 ft 349 kts 53°
2026-05-07 10:57 38.03709 -122.22495 15723 ft 352 kts 52°
2026-05-07 10:58 38.05217 -122.19985 16222 ft 354 kts 52°
2026-05-07 10:58 38.06705 -122.17528 16706 ft 356 kts 52°
2026-05-07 10:58 38.08236 -122.15009 17186 ft 358 kts 52°
2026-05-07 10:58 38.09764 -122.12498 17637 ft 360 kts 52°
2026-05-07 10:59 38.10774 -122.10838 17914 ft 361 kts 52°
2026-05-07 10:59 38.12830 -122.07458 18456 ft 365 kts 52°
2026-05-07 10:59 38.14388 -122.04894 18857 ft 367 kts 52°
2026-05-07 10:59 38.15441 -122.03160 19131 ft 368 kts 52°
2026-05-07 11:00 38.16990 -122.00607 19542 ft 370 kts 52°
2026-05-07 11:00 38.18581 -121.97984 19956 ft 371 kts 51°
2026-05-07 11:00 38.20159 -121.95380 20331 ft 373 kts 51°
2026-05-07 11:00 38.21725 -121.92794 20690 ft 375 kts 51°
2026-05-07 11:01 38.23317 -121.90165 21037 ft 377 kts 51°
2026-05-07 11:01 38.24923 -121.87507 21394 ft 379 kts 51°
2026-05-07 11:01 38.26534 -121.84842 21747 ft 381 kts 51°
2026-05-07 11:01 38.28151 -121.82162 22101 ft 382 kts 51°
2026-05-07 11:02 38.29773 -121.79471 22441 ft 384 kts 51°
2026-05-07 11:02 38.31405 -121.76764 22778 ft 385 kts 51°
2026-05-07 11:02 38.33032 -121.74062 23077 ft 387 kts 51°
2026-05-07 11:02 38.34683 -121.71318 23397 ft 389 kts 51°
2026-05-07 11:03 38.36330 -121.68575 23710 ft 390 kts 51°
2026-05-07 11:03 38.37984 -121.65820 24050 ft 391 kts 51°
2026-05-07 11:03 38.39618 -121.63096 24350 ft 393 kts 51°
2026-05-07 11:03 38.41284 -121.60319 24629 ft 394 kts 51°
2026-05-07 11:04 38.42953 -121.57543 24896 ft 396 kts 51°
2026-05-07 11:04 38.44652 -121.54745 25156 ft 398 kts 50°
2026-05-07 11:04 38.46363 -121.51932 25424 ft 400 kts 50°
2026-05-07 11:04 38.48071 -121.49132 25712 ft 401 kts 50°
2026-05-07 11:05 38.49788 -121.46322 25987 ft 402 kts 50°
2026-05-07 11:05 38.51506 -121.43510 26232 ft 403 kts 50°
2026-05-07 11:05 38.53242 -121.40665 26464 ft 405 kts 50°
2026-05-07 11:05 38.54953 -121.37860 26687 ft 406 kts 50°
2026-05-07 11:06 38.56693 -121.35003 26919 ft 408 kts 50°
2026-05-07 11:06 38.58438 -121.32136 27157 ft 409 kts 50°
2026-05-07 11:06 38.60181 -121.29272 27410 ft 409 kts 50°
2026-05-07 11:06 38.61929 -121.26397 27635 ft 410 kts 50°
2026-05-07 11:07 38.63682 -121.23512 27846 ft 411 kts 50°
2026-05-07 11:07 38.65445 -121.20609 28036 ft 413 kts 50°
2026-05-07 11:07 38.67208 -121.17700 28218 ft 415 kts 50°
2026-05-07 11:07 38.68977 -121.14781 28412 ft 416 kts 50°
2026-05-07 11:08 38.70751 -121.11849 28621 ft 416 kts 50°
2026-05-07 11:08 38.72528 -121.08909 28834 ft 417 kts 50°
2026-05-07 11:08 38.74302 -121.05973 29031 ft 418 kts 50°
2026-05-07 11:08 38.76082 -121.03023 29214 ft 418 kts 50°
2026-05-07 11:09 38.77866 -121.00064 29376 ft 420 kts 50°
2026-05-07 11:09 38.79650 -120.97103 29524 ft 421 kts 50°
2026-05-07 11:09 38.81446 -120.94119 29681 ft 423 kts 51°
2026-05-07 11:09 38.83203 -120.91197 29854 ft 423 kts 51°
2026-05-07 11:10 38.85043 -120.88134 30042 ft 424 kts 51°
2026-05-07 11:10 38.86820 -120.85172 30216 ft 424 kts 51°
2026-05-07 11:10 38.88641 -120.82135 30380 ft 425 kts 51°
2026-05-07 11:10 38.90445 -120.79122 30538 ft 425 kts 51°
2026-05-07 11:11 38.92223 -120.76152 30675 ft 426 kts 51°
2026-05-07 11:11 38.94030 -120.73129 30812 ft 427 kts 51°
2026-05-07 11:11 38.95844 -120.70092 30946 ft 428 kts 51°
2026-05-07 11:11 38.97668 -120.67038 31084 ft 429 kts 51°
2026-05-07 11:12 38.99481 -120.63996 31223 ft 430 kts 51°
2026-05-07 11:12 39.01301 -120.60942 31374 ft 430 kts 51°
2026-05-07 11:12 39.03117 -120.57890 31530 ft 430 kts 51°
2026-05-07 11:12 39.04932 -120.54838 31677 ft 430 kts 51°
2026-05-07 11:13 39.06744 -120.51787 31806 ft 431 kts 51°
2026-05-07 11:13 39.08561 -120.48722 31934 ft 432 kts 51°
2026-05-07 11:13 39.10381 -120.45653 32045 ft 432 kts 51°
2026-05-07 11:13 39.12225 -120.42539 32152 ft 433 kts 51°
2026-05-07 11:14 39.14027 -120.39495 32260 ft 434 kts 51°
2026-05-07 11:14 39.15853 -120.36407 32366 ft 435 kts 51°
2026-05-07 11:14 39.17683 -120.33307 32470 ft 436 kts 51°
2026-05-07 11:14 39.19517 -120.30199 32578 ft 436 kts 51°
2026-05-07 11:15 39.21367 -120.27060 32704 ft 436 kts 51°
2026-05-07 11:15 39.23203 -120.23941 32817 ft 437 kts 51°
2026-05-07 11:15 39.25046 -120.20808 32922 ft 437 kts 51°
2026-05-07 11:15 39.26879 -120.17690 33023 ft 437 kts 51°
2026-05-07 11:16 39.30562 -120.11413 33223 ft 438 kts 51°
2026-05-07 11:16 39.34238 -120.05136 33420 ft 439 kts 51°
2026-05-07 11:17 39.36059 -120.02017 33558 ft 438 kts 51°
2026-05-07 11:17 39.37916 -119.98837 33676 ft 438 kts 51°
2026-05-07 11:17 39.39754 -119.95689 33800 ft 438 kts 51°
2026-05-07 11:17 39.41563 -119.92588 33899 ft 438 kts 51°
2026-05-07 11:18 39.43397 -119.89439 34008 ft 437 kts 51°
2026-05-07 11:18 39.45249 -119.86258 34106 ft 438 kts 51°
2026-05-07 11:18 39.48890 -119.79992 34291 ft 438 kts 51°
2026-05-07 11:19 39.52569 -119.73648 34466 ft 438 kts 51°
2026-05-07 11:19 39.56207 -119.67362 34633 ft 438 kts 51°
2026-05-07 11:20 39.59860 -119.61037 34807 ft 438 kts 51°
2026-05-07 11:20 39.63511 -119.54704 34976 ft 438 kts 51°
2026-05-07 11:21 39.67141 -119.48394 35133 ft 438 kts 51°
2026-05-07 11:21 39.70775 -119.42065 35282 ft 438 kts 51°
2026-05-07 11:22 39.74426 -119.35694 35424 ft 438 kts 51°
2026-05-07 11:22 39.78057 -119.29343 35561 ft 438 kts 51°
2026-05-07 11:23 39.81695 -119.22967 35696 ft 438 kts 51°
2026-05-07 11:23 39.85327 -119.16590 35822 ft 438 kts 51°
2026-05-07 11:24 39.88869 -119.10123 35943 ft 439 kts 52°
2026-05-07 11:24 39.92291 -119.03576 36056 ft 439 kts 53°
2026-05-07 11:25 39.95666 -118.96959 36163 ft 439 kts 54°
2026-05-07 11:25 39.98848 -118.90149 36270 ft 439 kts 56°
2026-05-07 11:26 40.01908 -118.83244 36365 ft 439 kts 57°
2026-05-07 11:26 40.04908 -118.76286 36448 ft 440 kts 57°
2026-05-07 11:27 40.07886 -118.69305 36530 ft 439 kts 57°
2026-05-07 11:27 40.10831 -118.62373 36608 ft 439 kts 57°
2026-05-07 11:28 40.13789 -118.55394 36683 ft 439 kts 57°
2026-05-07 11:28 40.16739 -118.48419 36755 ft 439 kts 57°
2026-05-07 11:29 40.19685 -118.41437 36822 ft 438 kts 57°
2026-05-07 11:29 40.22625 -118.34453 36881 ft 438 kts 58°
2026-05-07 11:30 40.25550 -118.27484 36954 ft 437 kts 58°
2026-05-07 11:30 40.28470 -118.20513 37071 ft 436 kts 57°
2026-05-07 11:31 40.31232 -118.13482 37224 ft 434 kts 60°
2026-05-07 11:31 40.33774 -118.06320 37388 ft 431 kts 62°
2026-05-07 11:32 40.36195 -117.99134 37507 ft 429 kts 62°
2026-05-07 11:32 40.37375 -117.95550 37558 ft 428 kts 63°
2026-05-07 11:33 40.39700 -117.88429 37631 ft 426 kts 63°
2026-05-07 11:33 40.42032 -117.81241 37700 ft 424 kts 63°
2026-05-07 11:34 40.44316 -117.74187 37735 ft 422 kts 63°
2026-05-07 11:34 40.46608 -117.67085 37747 ft 422 kts 63°
2026-05-07 11:35 40.48894 -117.59984 37749 ft 421 kts 63°
2026-05-07 11:35 40.51173 -117.52888 37747 ft 420 kts 63°
2026-05-07 11:36 40.53442 -117.45803 37730 ft 420 kts 63°
2026-05-07 11:36 40.55705 -117.38716 37719 ft 420 kts 63°
2026-05-07 11:37 40.57950 -117.31670 37700 ft 420 kts 63°
2026-05-07 11:37 40.60204 -117.24577 37681 ft 420 kts 63°
2026-05-07 11:38 40.62455 -117.17475 37660 ft 420 kts 63°
2026-05-07 11:38 40.64704 -117.10362 37642 ft 421 kts 63°
2026-05-07 11:39 40.66945 -117.03251 37627 ft 421 kts 62°
2026-05-07 11:39 40.69188 -116.96120 37611 ft 421 kts 63°
2026-05-07 11:40 40.71423 -116.88995 37598 ft 421 kts 63°
2026-05-07 11:40 40.73656 -116.81858 37588 ft 421 kts 63°
2026-05-07 11:41 40.75879 -116.74724 37582 ft 421 kts 63°
2026-05-07 11:41 40.78096 -116.67594 37575 ft 421 kts 63°
2026-05-07 11:42 40.80306 -116.60463 37581 ft 421 kts 63°
2026-05-07 11:42 40.82516 -116.53318 37604 ft 420 kts 63°
2026-05-07 11:43 40.84709 -116.46210 37612 ft 419 kts 63°
2026-05-07 11:43 40.86900 -116.39089 37615 ft 419 kts 63°
2026-05-07 11:44 40.89106 -116.31899 37615 ft 419 kts 63°
2026-05-07 11:44 40.91279 -116.24797 37719 ft 421 kts 63°
2026-05-07 11:45 40.93500 -116.17531 37825 ft 427 kts 63°
2026-05-07 11:45 40.95723 -116.10227 37992 ft 432 kts 63°
2026-05-07 11:45 40.96846 -116.06529 38093 ft 435 kts 63°
2026-05-07 11:46 40.97611 -116.04007 38162 ft 436 kts 63°
2026-05-07 11:46 40.99103 -115.99085 38295 ft 439 kts 63°
2026-05-07 11:46 41.00243 -115.95311 38396 ft 441 kts 62°
2026-05-07 11:46 41.01383 -115.91536 38498 ft 443 kts 62°
2026-05-07 11:47 41.02529 -115.87737 38599 ft 445 kts 63°
2026-05-07 11:47 41.03681 -115.83915 38700 ft 447 kts 63°
2026-05-07 11:47 41.04463 -115.81314 38768 ft 449 kts 63°
2026-05-07 11:47 41.05614 -115.77482 38869 ft 451 kts 63°
2026-05-07 11:48 41.06779 -115.73598 38970 ft 452 kts 63°
2026-05-07 11:48 41.09090 -115.65876 39147 ft 455 kts 63°
2026-05-07 11:49 41.11437 -115.58018 39169 ft 462 kts 63°
2026-05-07 11:49 41.13819 -115.50019 39178 ft 470 kts 63°
2026-05-07 11:50 41.16229 -115.41896 39166 ft 478 kts 63°
2026-05-07 11:50 41.18684 -115.33596 39159 ft 487 kts 63°
2026-05-07 11:51 41.21174 -115.25146 39150 ft 494 kts 63°
2026-05-07 11:51 41.23664 -115.16657 39155 ft 497 kts 63°
2026-05-07 11:52 41.26188 -115.08031 39146 ft 497 kts 63°
2026-05-07 11:52 41.28670 -114.99526 39141 ft 498 kts 63°
2026-05-07 11:53 41.31174 -114.90918 39145 ft 498 kts 63°
2026-05-07 11:53 41.33673 -114.82298 39132 ft 498 kts 63°
2026-05-07 11:54 41.36151 -114.73726 39134 ft 499 kts 63°
2026-05-07 11:54 41.38639 -114.65087 39138 ft 500 kts 63°
2026-05-07 11:55 41.41125 -114.56429 39127 ft 499 kts 63°
2026-05-07 11:55 41.43605 -114.47761 39132 ft 500 kts 63°
2026-05-07 11:56 41.46078 -114.39095 39117 ft 501 kts 63°
2026-05-07 11:56 41.48544 -114.30417 39113 ft 502 kts 63°
2026-05-07 11:57 41.51011 -114.21710 39122 ft 502 kts 63°
2026-05-07 11:57 41.53465 -114.13017 39107 ft 503 kts 63°
2026-05-07 11:58 41.55919 -114.04295 39113 ft 503 kts 63°
2026-05-07 11:58 41.58374 -113.95530 39102 ft 504 kts 62°
2026-05-07 11:59 41.60833 -113.86732 39091 ft 504 kts 63°
2026-05-07 11:59 41.63282 -113.77941 39100 ft 504 kts 63°
2026-05-07 12:00 41.65706 -113.69204 39096 ft 503 kts 63°
2026-05-07 12:00 41.68135 -113.60417 39090 ft 503 kts 63°
2026-05-07 12:01 41.70556 -113.51631 39100 ft 503 kts 63°
2026-05-07 12:01 41.72970 -113.42840 39086 ft 503 kts 63°
2026-05-07 12:02 41.75361 -113.34089 39090 ft 502 kts 63°
2026-05-07 12:02 41.77758 -113.25304 39095 ft 503 kts 63°
2026-05-07 12:03 41.80142 -113.16526 39082 ft 501 kts 63°
2026-05-07 12:03 41.82538 -113.07679 39092 ft 502 kts 63°
2026-05-07 12:04 41.84912 -112.98877 39096 ft 502 kts 63°
2026-05-07 12:04 41.87268 -112.90110 39101 ft 502 kts 63°
2026-05-07 12:05 41.89629 -112.81288 39098 ft 501 kts 63°
2026-05-07 12:05 41.91990 -112.72438 39108 ft 501 kts 63°
2026-05-07 12:06 41.94336 -112.63611 39102 ft 501 kts 63°
2026-05-07 12:06 41.96654 -112.54867 39105 ft 501 kts 63°
2026-05-07 12:07 41.98994 -112.46012 39119 ft 503 kts 63°
2026-05-07 12:07 42.01331 -112.37116 39110 ft 504 kts 63°
2026-05-07 12:08 42.03654 -112.28252 39114 ft 503 kts 63°
2026-05-07 12:08 42.05973 -112.19365 39130 ft 503 kts 63°
2026-05-07 12:09 42.08290 -112.10450 39131 ft 503 kts 63°
2026-05-07 12:09 42.10580 -112.01610 39126 ft 503 kts 63°
2026-05-07 12:10 42.12865 -111.92747 39140 ft 499 kts 63°
2026-05-07 12:10 42.15134 -111.83937 39128 ft 500 kts 63°
2026-05-07 12:11 42.17410 -111.75061 39139 ft 501 kts 63°
2026-05-07 12:11 42.19699 -111.66102 39146 ft 502 kts 63°
2026-05-07 12:12 42.21951 -111.57241 39134 ft 502 kts 63°
2026-05-07 12:12 42.24217 -111.48302 39148 ft 503 kts 63°
2026-05-07 12:13 42.26472 -111.39358 39151 ft 503 kts 63°
2026-05-07 12:13 42.28727 -111.30394 39150 ft 505 kts 63°
2026-05-07 12:14 42.30984 -111.21388 39162 ft 506 kts 63°
2026-05-07 12:14 42.33218 -111.12437 39163 ft 506 kts 63°
2026-05-07 12:15 42.35462 -111.03408 39165 ft 507 kts 63°
2026-05-07 12:15 42.37705 -110.94353 39172 ft 508 kts 63°
2026-05-07 12:16 42.39942 -110.85280 39162 ft 508 kts 64°
2026-05-07 12:16 42.42169 -110.76208 39174 ft 509 kts 64°
2026-05-07 12:17 42.44403 -110.67088 39172 ft 509 kts 64°
2026-05-07 12:17 42.46621 -110.57985 39166 ft 509 kts 64°
2026-05-07 12:18 42.48820 -110.48932 39178 ft 511 kts 64°
2026-05-07 12:18 42.51036 -110.39771 39169 ft 510 kts 64°
2026-05-07 12:19 42.53221 -110.30693 39167 ft 509 kts 64°
2026-05-07 12:19 42.55418 -110.21537 39177 ft 511 kts 64°
2026-05-07 12:20 42.57556 -110.12323 39164 ft 512 kts 65°
2026-05-07 12:20 42.59542 -110.03039 39170 ft 513 kts 66°
2026-05-07 12:21 42.61468 -109.93702 39173 ft 516 kts 67°
2026-05-07 12:21 42.63364 -109.84325 39162 ft 515 kts 67°
2026-05-07 12:22 42.65261 -109.74901 39173 ft 517 kts 67°
2026-05-07 12:22 42.67149 -109.65482 39163 ft 517 kts 68°
2026-05-07 12:23 42.69035 -109.56035 39159 ft 518 kts 68°
2026-05-07 12:23 42.70904 -109.46625 39163 ft 518 kts 68°
2026-05-07 12:24 42.72789 -109.37094 39145 ft 520 kts 68°
2026-05-07 12:24 42.74659 -109.27588 39132 ft 520 kts 68°
2026-05-07 12:25 42.76516 -109.18109 39116 ft 521 kts 68°
2026-05-07 12:25 42.78374 -109.08572 39101 ft 522 kts 68°
2026-05-07 12:26 42.80233 -108.98990 39084 ft 523 kts 68°
2026-05-07 12:26 42.82079 -108.89426 39066 ft 524 kts 68°
2026-05-07 12:27 42.83926 -108.79808 39055 ft 524 kts 68°
2026-05-07 12:27 42.85753 -108.70250 39061 ft 525 kts 68°
2026-05-07 12:28 42.87592 -108.60578 39061 ft 526 kts 68°
2026-05-07 12:28 42.89419 -108.50922 39048 ft 527 kts 69°
2026-05-07 12:29 42.91232 -108.41289 39059 ft 527 kts 69°
2026-05-07 12:29 42.93055 -108.31553 39050 ft 527 kts 69°
2026-05-07 12:30 42.94864 -108.21848 39047 ft 528 kts 69°
2026-05-07 12:30 42.96708 -108.12150 39058 ft 528 kts 68°
2026-05-07 12:31 42.98577 -108.02511 39046 ft 527 kts 68°
2026-05-07 12:31 43.00471 -107.92809 39055 ft 530 kts 69°
2026-05-07 12:32 43.02353 -107.83105 39053 ft 530 kts 69°
2026-05-07 12:32 43.04235 -107.73354 39036 ft 531 kts 69°
2026-05-07 12:33 43.07049 -107.58665 39034 ft 531 kts 69°
2026-05-07 12:33 43.08901 -107.48955 39021 ft 530 kts 69°
2026-05-07 12:34 43.10761 -107.39158 39010 ft 532 kts 69°
2026-05-07 12:34 43.12607 -107.29377 39018 ft 531 kts 70°
2026-05-07 12:35 43.14452 -107.19543 39010 ft 531 kts 70°
2026-05-07 12:35 43.15977 -107.11384 39004 ft 532 kts 70°
2026-05-07 12:36 43.17805 -107.01552 39018 ft 532 kts 70°
2026-05-07 12:36 43.19623 -106.91712 39009 ft 533 kts 70°
2026-05-07 12:37 43.21387 -106.81901 39006 ft 533 kts 71°
2026-05-07 12:37 43.23131 -106.72017 39016 ft 534 kts 71°
2026-05-07 12:38 43.24861 -106.62112 39002 ft 533 kts 71°
2026-05-07 12:38 43.26587 -106.52179 38998 ft 534 kts 71°
2026-05-07 12:39 43.28297 -106.42280 39009 ft 534 kts 71°
2026-05-07 12:39 43.30007 -106.32322 38986 ft 534 kts 71°
2026-05-07 12:40 43.31705 -106.22388 38980 ft 535 kts 72°
2026-05-07 12:40 43.33386 -106.12508 38985 ft 535 kts 72°
2026-05-07 12:41 43.35069 -106.02548 38973 ft 535 kts 72°
2026-05-07 12:41 43.36748 -105.92563 38969 ft 536 kts 72°
2026-05-07 12:42 43.38416 -105.82574 38973 ft 536 kts 72°
2026-05-07 12:42 43.40077 -105.72575 38959 ft 537 kts 72°
2026-05-07 12:43 43.41729 -105.62570 38964 ft 537 kts 72°
2026-05-07 12:43 43.43374 -105.52546 38959 ft 537 kts 73°
2026-05-07 12:44 43.45001 -105.42580 38952 ft 537 kts 73°
2026-05-07 12:44 43.46629 -105.32548 38958 ft 537 kts 73°
2026-05-07 12:45 43.48252 -105.22493 38942 ft 537 kts 73°
2026-05-07 12:45 43.49862 -105.12442 38947 ft 537 kts 73°
2026-05-07 12:46 43.51462 -105.02399 38948 ft 538 kts 73°
2026-05-07 12:46 43.53041 -104.92438 38937 ft 537 kts 73°
2026-05-07 12:47 43.54647 -104.82250 38944 ft 538 kts 73°
2026-05-07 12:47 43.56226 -104.72159 38939 ft 538 kts 74°
2026-05-07 12:48 43.57794 -104.62078 38936 ft 538 kts 74°
2026-05-07 12:48 43.59352 -104.51995 38947 ft 537 kts 74°
2026-05-07 12:49 43.60896 -104.41932 38935 ft 538 kts 74°
2026-05-07 12:49 43.62432 -104.31876 38941 ft 537 kts 75°
2026-05-07 12:50 43.63964 -104.21782 38939 ft 537 kts 75°
2026-05-07 12:50 43.65480 -104.11714 38928 ft 537 kts 75°
2026-05-07 12:51 43.66991 -104.01632 38940 ft 537 kts 75°
2026-05-07 12:51 43.68503 -103.91478 38931 ft 537 kts 75°
2026-05-07 12:52 43.69996 -103.81390 38926 ft 537 kts 75°
2026-05-07 12:52 43.71486 -103.71245 38936 ft 538 kts 75°
2026-05-07 12:53 43.72964 -103.61118 38924 ft 538 kts 75°
2026-05-07 12:53 43.74440 -103.50945 38931 ft 539 kts 75°
2026-05-07 12:54 43.75905 -103.40777 38930 ft 540 kts 75°
2026-05-07 12:54 43.77364 -103.30578 38919 ft 539 kts 75°
2026-05-07 12:55 43.78811 -103.20396 38925 ft 540 kts 75°
2026-05-07 12:55 43.80255 -103.10174 38915 ft 541 kts 75°
2026-05-07 12:56 43.81680 -103.00008 38903 ft 541 kts 75°
2026-05-07 12:56 43.83103 -102.89794 38916 ft 541 kts 75°
2026-05-07 12:57 43.84522 -102.79529 38912 ft 541 kts 75°
2026-05-07 12:57 43.85930 -102.69283 38906 ft 542 kts 75°
2026-05-07 12:58 43.87331 -102.59008 38919 ft 541 kts 75°
2026-05-07 12:58 43.88718 -102.48755 38911 ft 542 kts 75°
2026-05-07 12:59 43.90095 -102.38476 38905 ft 541 kts 75°
2026-05-07 12:59 43.91463 -102.28267 38916 ft 542 kts 75°
2026-05-07 13:00 43.92834 -102.17944 38905 ft 541 kts 75°
2026-05-07 13:00 43.94181 -102.07717 38910 ft 541 kts 75°
2026-05-07 13:01 43.95523 -101.97441 38912 ft 541 kts 75°
2026-05-07 13:01 43.96858 -101.87149 38902 ft 541 kts 75°
2026-05-07 13:02 43.98184 -101.76852 38914 ft 542 kts 75°
2026-05-07 13:02 43.99500 -101.66560 38907 ft 542 kts 76°
2026-05-07 13:03 44.00809 -101.56225 38906 ft 541 kts 75°
2026-05-07 13:03 44.02089 -101.45906 38916 ft 542 kts 76°
2026-05-07 13:04 44.03287 -101.35595 38902 ft 543 kts 76°
2026-05-07 13:04 44.04449 -101.25215 38912 ft 544 kts 77°
2026-05-07 13:05 44.05595 -101.14810 38908 ft 545 kts 77°
2026-05-07 13:05 44.06733 -101.04393 38899 ft 546 kts 77°
2026-05-07 13:06 44.07866 -100.93950 38911 ft 546 kts 77°
2026-05-07 13:06 44.08992 -100.83470 38901 ft 548 kts 77°
2026-05-07 13:07 44.10108 -100.72982 38900 ft 548 kts 77°
2026-05-07 13:07 44.11222 -100.62452 38906 ft 550 kts 77°
2026-05-07 13:08 44.12316 -100.51994 38894 ft 550 kts 77°
2026-05-07 13:08 44.13417 -100.41380 38903 ft 552 kts 77°
2026-05-07 13:09 44.14496 -100.30841 38904 ft 552 kts 77°
2026-05-07 13:09 44.15567 -100.20310 38895 ft 553 kts 77°
2026-05-07 13:10 44.16646 -100.09638 38922 ft 554 kts 77°
2026-05-07 13:10 44.17709 -99.98998 38935 ft 554 kts 77°
2026-05-07 13:11 44.18759 -99.88381 38931 ft 554 kts 77°
2026-05-07 13:11 44.19800 -99.77738 38934 ft 554 kts 77°
2026-05-07 13:12 44.20825 -99.67167 38938 ft 553 kts 77°
2026-05-07 13:12 44.21846 -99.56528 38931 ft 552 kts 77°
2026-05-07 13:13 44.22856 -99.45901 38941 ft 553 kts 78°
2026-05-07 13:13 44.23857 -99.35269 38940 ft 554 kts 78°
2026-05-07 13:14 44.24848 -99.24617 38936 ft 554 kts 78°
2026-05-07 13:14 44.25830 -99.13959 38949 ft 554 kts 78°
2026-05-07 13:15 44.26800 -99.03328 38939 ft 554 kts 78°
2026-05-07 13:15 44.27762 -98.92662 38943 ft 555 kts 78°
2026-05-07 13:16 44.28721 -98.81925 38947 ft 555 kts 78°
2026-05-07 13:16 44.29663 -98.71257 38938 ft 556 kts 78°
2026-05-07 13:17 44.30596 -98.60550 38946 ft 557 kts 78°
2026-05-07 13:17 44.31523 -98.49811 38939 ft 558 kts 78°
2026-05-07 13:18 44.32441 -98.39086 38937 ft 558 kts 78°
2026-05-07 13:18 44.33358 -98.28224 38946 ft 559 kts 79°
2026-05-07 13:19 44.34253 -98.17502 38933 ft 559 kts 79°
2026-05-07 13:19 44.35143 -98.06731 38943 ft 559 kts 79°
2026-05-07 13:20 44.36026 -97.95916 38940 ft 561 kts 79°
2026-05-07 13:20 44.36754 -97.86895 38935 ft 560 kts 79°
2026-05-07 13:21 44.37757 -97.74288 38947 ft 560 kts 79°
2026-05-07 13:21 44.38469 -97.65243 38937 ft 559 kts 79°
2026-05-07 13:22 44.39312 -97.54428 38939 ft 560 kts 79°
2026-05-07 13:22 44.40140 -97.43655 38946 ft 560 kts 79°
2026-05-07 13:23 44.40962 -97.32825 38933 ft 560 kts 79°
2026-05-07 13:23 44.41774 -97.21987 38943 ft 560 kts 80°
2026-05-07 13:24 44.42577 -97.11144 38952 ft 561 kts 80°
2026-05-07 13:24 44.43369 -97.00273 38948 ft 561 kts 80°
2026-05-07 13:25 44.44153 -96.89399 38949 ft 561 kts 80°
2026-05-07 13:25 44.44926 -96.78541 38950 ft 563 kts 80°
2026-05-07 13:26 44.45692 -96.67613 38954 ft 563 kts 81°
2026-05-07 13:26 44.46449 -96.56675 38957 ft 564 kts 81°
2026-05-07 13:27 44.47186 -96.45829 38962 ft 564 kts 81°
2026-05-07 13:27 44.47916 -96.34946 38964 ft 566 kts 81°
2026-05-07 13:28 44.48647 -96.23937 38977 ft 566 kts 81°
2026-05-07 13:28 44.49224 -96.12880 38973 ft 568 kts 84°
2026-05-07 13:29 44.49234 -96.01792 38965 ft 570 kts 88°
2026-05-07 13:29 44.48917 -95.90668 38978 ft 572 kts 90°
2026-05-07 13:30 44.48460 -95.79575 38969 ft 572 kts 91°
2026-05-07 13:30 44.47981 -95.68435 38961 ft 571 kts 91°
2026-05-07 13:31 44.47742 -95.62898 38365 ft 569 kts 91°
2026-05-07 13:31 44.47501 -95.57382 37739 ft 560 kts 90°
2026-05-07 13:31 44.47263 -95.51976 36995 ft 555 kts 90°
2026-05-07 13:31 44.47028 -95.46676 36320 ft 548 kts 90°
2026-05-07 13:32 44.46789 -95.41300 35585 ft 543 kts 90°
2026-05-07 13:32 44.46558 -95.36148 34935 ft 536 kts 90°
2026-05-07 13:32 44.46324 -95.30978 34264 ft 529 kts 89°
2026-05-07 13:32 44.46131 -95.25857 33578 ft 520 kts 86°
2026-05-07 13:33 44.46409 -95.20882 32838 ft 508 kts 77°
2026-05-07 13:33 44.47021 -95.16103 32275 ft 495 kts 72°
2026-05-07 13:33 44.47771 -95.11423 31635 ft 486 kts 70°
2026-05-07 13:33 44.48632 -95.06884 31042 ft 476 kts 68°
2026-05-07 13:34 44.49566 -95.02475 30443 ft 467 kts 66°
2026-05-07 13:34 44.51492 -94.93993 29288 ft 452 kts 65°
2026-05-07 13:34 44.52457 -94.89831 28720 ft 445 kts 65°
2026-05-07 13:35 44.53412 -94.85706 28159 ft 438 kts 65°
2026-05-07 13:35 44.54345 -94.81663 27610 ft 431 kts 66°
2026-05-07 13:35 44.55244 -94.77747 27078 ft 425 kts 66°
2026-05-07 13:35 44.56143 -94.73819 26542 ft 419 kts 66°
2026-05-07 13:36 44.57035 -94.69916 26005 ft 414 kts 66°
2026-05-07 13:36 44.57896 -94.66138 25484 ft 409 kts 67°
2026-05-07 13:36 44.58760 -94.62342 24965 ft 406 kts 67°
2026-05-07 13:36 44.59607 -94.58611 24465 ft 402 kts 68°
2026-05-07 13:37 44.60455 -94.54868 23962 ft 398 kts 68°
2026-05-07 13:37 44.61291 -94.51169 23458 ft 395 kts 68°
2026-05-07 13:37 44.62118 -94.47506 22953 ft 392 kts 68°
2026-05-07 13:37 44.62932 -94.43882 22461 ft 389 kts 68°
2026-05-07 13:38 44.63745 -94.40271 21974 ft 386 kts 68°
2026-05-07 13:38 44.64544 -94.36716 21498 ft 383 kts 68°
2026-05-07 13:38 44.65346 -94.33152 21013 ft 381 kts 68°
2026-05-07 13:38 44.66153 -94.29570 20521 ft 379 kts 68°
2026-05-07 13:39 44.66941 -94.26067 20038 ft 376 kts 68°
2026-05-07 13:39 44.67718 -94.22607 19567 ft 373 kts 68°
2026-05-07 13:39 44.68379 -94.19671 19172 ft 370 kts 68°
2026-05-07 13:39 44.69106 -94.16445 18742 ft 367 kts 68°
2026-05-07 13:40 44.69870 -94.13046 18284 ft 365 kts 68°
2026-05-07 13:40 44.70643 -94.09607 17816 ft 363 kts 68°
2026-05-07 13:40 44.71401 -94.06231 17356 ft 362 kts 68°
2026-05-07 13:40 44.72146 -94.02911 16912 ft 360 kts 68°
2026-05-07 13:41 44.72896 -93.99565 16465 ft 358 kts 69°
2026-05-07 13:41 44.73645 -93.96218 16012 ft 357 kts 69°
2026-05-07 13:41 44.74384 -93.92900 15553 ft 352 kts 69°
2026-05-07 13:41 44.75107 -93.89650 15102 ft 346 kts 69°
2026-05-07 13:42 44.75823 -93.86432 14674 ft 341 kts 69°
2026-05-07 13:42 44.76528 -93.83281 14256 ft 335 kts 69°
2026-05-07 13:42 44.77220 -93.80182 13838 ft 329 kts 69°
2026-05-07 13:42 44.77897 -93.77141 13411 ft 320 kts 69°
2026-05-07 13:43 44.78546 -93.74207 13015 ft 310 kts 69°
2026-05-07 13:43 44.79178 -93.71354 12686 ft 298 kts 69°
2026-05-07 13:43 44.79775 -93.68657 12445 ft 285 kts 69°
2026-05-07 13:43 44.80373 -93.65968 12216 ft 290 kts 69°
2026-05-07 13:44 44.80979 -93.63250 11913 ft 294 kts 69°
2026-05-07 13:44 44.81591 -93.60475 11597 ft 292 kts 69°
2026-05-07 13:44 44.82190 -93.57764 11276 ft 291 kts 70°
2026-05-07 13:44 44.82784 -93.55063 11009 ft 289 kts 70°
2026-05-07 13:45 44.83376 -93.52362 10759 ft 288 kts 70°
2026-05-07 13:45 44.83961 -93.49700 10511 ft 287 kts 70°
2026-05-07 13:45 44.84545 -93.47037 10251 ft 284 kts 70°
2026-05-07 13:45 44.85076 -93.44335 9925 ft 286 kts 75°
2026-05-07 13:46 44.84955 -93.41620 9536 ft 273 kts 101°
2026-05-07 13:46 44.84105 -93.39394 9427 ft 245 kts 122°
2026-05-07 13:46 44.83137 -93.37439 9280 ft 245 kts 126°
2026-05-07 13:46 44.82168 -93.35426 9043 ft 252 kts 126°
2026-05-07 13:47 44.81215 -93.33354 8763 ft 250 kts 124°
2026-05-07 13:47 44.80298 -93.31297 8509 ft 245 kts 124°
2026-05-07 13:47 44.79402 -93.29252 8297 ft 247 kts 123°
2026-05-07 13:47 44.78516 -93.27209 8113 ft 244 kts 123°
2026-05-07 13:48 44.77626 -93.25160 8032 ft 244 kts 123°
2026-05-07 13:48 44.76737 -93.23125 8022 ft 246 kts 123°
2026-05-07 13:48 44.75883 -93.21020 8040 ft 247 kts 121°
2026-05-07 13:48 44.75075 -93.19018 7892 ft 236 kts 121°
2026-05-07 13:49 44.74260 -93.17016 7579 ft 229 kts 121°
2026-05-07 13:49 44.73479 -93.15092 7269 ft 226 kts 121°
2026-05-07 13:49 44.72703 -93.13186 7001 ft 223 kts 121°
2026-05-07 13:49 44.71952 -93.11279 6757 ft 222 kts 119°
2026-05-07 13:50 44.71679 -93.09169 6431 ft 219 kts 93°
2026-05-07 13:50 44.72207 -93.07212 6281 ft 215 kts 62°
2026-05-07 13:50 44.73330 -93.05896 6099 ft 210 kts 33°
2026-05-07 13:50 44.74640 -93.04981 5911 ft 210 kts 24°
2026-05-07 13:51 44.75934 -93.04054 5489 ft 210 kts 25°
2026-05-07 13:51 44.77154 -93.02878 4943 ft 213 kts 30°
2026-05-07 13:51 44.78571 -93.02370 4195 ft 215 kts
2026-05-07 13:51 44.79930 -93.02968 3817 ft 199 kts 335°
2026-05-07 13:52 44.80847 -93.04332 3427 ft 189 kts 308°
2026-05-07 13:52 44.81403 -93.05931 3253 ft 171 kts 296°
2026-05-07 13:52 44.81935 -93.07400 2929 ft 170 kts 296°
2026-05-07 13:52 44.82501 -93.08854 2679 ft 169 kts 297°
2026-05-07 13:53 44.83091 -93.10288 2460 ft 168 kts 299°
2026-05-07 13:53 44.83688 -93.11695 2229 ft 169 kts 300°
2026-05-07 13:53 44.84162 -93.12790 2058 ft 169 kts 301°
2026-05-07 13:53 44.84782 -93.14190 1837 ft 170 kts 302°
2026-05-07 13:54 44.85376 -93.15544 1622 ft 170 kts 302°
2026-05-07 13:54 44.85994 -93.16974 1394 ft 170 kts 301°
2026-05-07 13:54 44.86590 -93.18361 1170 ft 158 kts 301°
2026-05-07 13:54 44.87139 -93.19634 973 ft 147 kts 301°
2026-05-07 13:55 44.87663 -93.20836 865 ft 140 kts 301°
2026-05-07 13:55 44.88099 -93.21835 855 ft 85 kts 301°
2026-05-07 13:55 44.88287 -93.22264 854 ft 16 kts 302°
2026-05-07 13:55 44.88347 -93.22388 854 ft 18 kts 316°
2026-05-07 13:56 44.88440 -93.22392 854 ft 6 kts 61°
2026-05-07 13:56 44.88430 -93.22314 854 ft 16 kts 108°
2026-05-07 13:56 44.88381 -93.22187 854 ft 19 kts 127°
2026-05-07 13:56 44.88320 -93.22058 854 ft 18 kts 122°
2026-05-07 13:57 44.88261 -93.21930 854 ft 16 kts 123°
2026-05-07 13:57 44.88212 -93.21817 854 ft 15 kts 121°
2026-05-07 13:57 44.88169 -93.21713 854 ft 12 kts 120°
2026-05-07 13:57 44.88136 -93.21635 854 ft 14 kts 121°
2026-05-07 13:58 44.88090 -93.21530 854 ft 9 kts 121°
2026-05-07 13:58 44.88060 -93.21462 854 ft 7 kts 122°
2026-05-07 13:58 44.88041 -93.21403 854 ft 7 kts 100°
2026-05-07 13:58 44.88055 -93.21342 854 ft 8 kts 55°
2026-05-07 13:59 44.88085 -93.21299 854 ft 8 kts 40°
2026-05-07 13:59 44.88101 -93.21281 854 ft 5 kts 37°
2026-05-07 13:59 44.88117 -93.21264 854 ft 1 kts 36°
2026-05-07 13:59 44.88123 -93.21259 854 ft 0 kts 34°
2026-05-07 14:00 44.88124 -93.21257 854 ft 0 kts 32°